owner,sensor,date,latitude,longitude,relative_humidity,qcFlag 
DISL,ioos:station:DISL:KATA:1,2017-11-01T00:30:00Z,30.2583,-88.2131,84.9,1111122 
DISL,ioos:station:DISL:KATA:1,2017-11-01T01:30:00Z,30.2583,-88.2131,90.8,1111122 
DISL,ioos:station:DISL:KATA:1,2017-11-01T02:30:00Z,30.2583,-88.2131,90.6,1111122 
DISL,ioos:station:DISL:KATA:1,2017-11-01T03:30:00Z,30.2583,-88.2131,81.3,1111122 
DISL,ioos:station:DISL:KATA:1,2017-11-01T04:30:00Z,30.2583,-88.2131,80.3,1111122 
DISL,ioos:station:DISL:KATA:1,2017-11-01T05:30:00Z,30.2583,-88.2131,77.23,1111122 
DISL,ioos:station:DISL:KATA:1,2017-11-01T06:30:00Z,30.2583,-88.2131,77.23,1111122 
DISL,ioos:station:DISL:KATA:1,2017-11-01T07:30:00Z,30.2583,-88.2131,80.9,1111122 
DISL,ioos:station:DISL:KATA:1,2017-11-01T08:30:00Z,30.2583,-88.2131,80.9,1111122 
DISL,ioos:station:DISL:KATA:1,2017-11-01T09:30:00Z,30.2583,-88.2131,79.57,1111122 
DISL,ioos:station:DISL:KATA:1,2017-11-01T10:30:00Z,30.2583,-88.2131,81.1,1111122 
DISL,ioos:station:DISL:KATA:1,2017-11-01T11:30:00Z,30.2583,-88.2131,80.1,1111122 
DISL,ioos:station:DISL:KATA:1,2017-11-01T12:30:00Z,30.2583,-88.2131,78.62,1111122 
DISL,ioos:station:DISL:KATA:1,2017-11-01T13:30:00Z,30.2583,-88.2131,76.13,1111122 
DISL,ioos:station:DISL:KATA:1,2017-11-01T14:30:00Z,30.2583,-88.2131,74.73,1111122 
DISL,ioos:station:DISL:KATA:1,2017-11-01T15:30:00Z,30.2583,-88.2131,72.42,1111122 
DISL,ioos:station:DISL:KATA:1,2017-11-01T16:30:00Z,30.2583,-88.2131,70.17,1111122 
DISL,ioos:station:DISL:KATA:1,2017-11-01T17:30:00Z,30.2583,-88.2131,69.94,1111122 
DISL,ioos:station:DISL:KATA:1,2017-11-01T18:30:00Z,30.2583,-88.2131,72.03,1111122 
DISL,ioos:station:DISL:KATA:1,2017-11-01T19:30:00Z,30.2583,-88.2131,73.47,1111122 
DISL,ioos:station:DISL:KATA:1,2017-11-01T20:30:00Z,30.2583,-88.2131,75.78,1111122 
DISL,ioos:station:DISL:KATA:1,2017-11-01T21:30:00Z,30.2583,-88.2131,77.85,1111122 
DISL,ioos:station:DISL:KATA:1,2017-11-01T22:30:00Z,30.2583,-88.2131,78.63,1111122 
DISL,ioos:station:DISL:KATA:1,2017-11-01T23:30:00Z,30.2583,-88.2131,81.9,1111122 
DISL,ioos:station:DISL:KATA:1,2017-11-02T00:30:00Z,30.2583,-88.2131,81.0,1111122 
DISL,ioos:station:DISL:KATA:1,2017-11-02T01:30:00Z,30.2583,-88.2131,82.9,1111122 
DISL,ioos:station:DISL:KATA:1,2017-11-02T02:30:00Z,30.2583,-88.2131,80.7,1111122 
DISL,ioos:station:DISL:KATA:1,2017-11-02T03:30:00Z,30.2583,-88.2131,82.1,1111122 
DISL,ioos:station:DISL:KATA:1,2017-11-02T04:30:00Z,30.2583,-88.2131,81.3,1111122 
DISL,ioos:station:DISL:KATA:1,2017-11-02T05:30:00Z,30.2583,-88.2131,81.5,1111122 
DISL,ioos:station:DISL:KATA:1,2017-11-02T06:30:00Z,30.2583,-88.2131,84.3,1111122 
DISL,ioos:station:DISL:KATA:1,2017-11-02T07:30:00Z,30.2583,-88.2131,84.9,1111122 
DISL,ioos:station:DISL:KATA:1,2017-11-02T08:30:00Z,30.2583,-88.2131,88.0,1111122 
DISL,ioos:station:DISL:KATA:1,2017-11-02T09:30:00Z,30.2583,-88.2131,90.6,1111122 
DISL,ioos:station:DISL:KATA:1,2017-11-02T10:30:00Z,30.2583,-88.2131,90.5,1111122 
DISL,ioos:station:DISL:KATA:1,2017-11-02T11:30:00Z,30.2583,-88.2131,93.8,1111122 
DISL,ioos:station:DISL:KATA:1,2017-11-02T12:30:00Z,30.2583,-88.2131,97.3,1111122 
DISL,ioos:station:DISL:KATA:1,2017-11-02T13:30:00Z,30.2583,-88.2131,95.1,1111122 
DISL,ioos:station:DISL:KATA:1,2017-11-02T14:30:00Z,30.2583,-88.2131,92.2,1111122 
DISL,ioos:station:DISL:KATA:1,2017-11-02T15:30:00Z,30.2583,-88.2131,94.0,1111122 
DISL,ioos:station:DISL:KATA:1,2017-11-02T16:30:00Z,30.2583,-88.2131,90.4,1111122 
DISL,ioos:station:DISL:KATA:1,2017-11-02T17:30:00Z,30.2583,-88.2131,91.7,1111122 
DISL,ioos:station:DISL:KATA:1,2017-11-02T18:30:00Z,30.2583,-88.2131,91.6,1111122 
DISL,ioos:station:DISL:KATA:1,2017-11-02T19:30:00Z,30.2583,-88.2131,90.0,1111122 
DISL,ioos:station:DISL:KATA:1,2017-11-02T20:30:00Z,30.2583,-88.2131,86.3,1111122 
DISL,ioos:station:DISL:KATA:1,2017-11-02T21:30:00Z,30.2583,-88.2131,91.4,1111122 
DISL,ioos:station:DISL:KATA:1,2017-11-02T22:30:00Z,30.2583,-88.2131,96.2,1111122 
DISL,ioos:station:DISL:KATA:1,2017-11-02T23:30:00Z,30.2583,-88.2131,96.2,1111122 
DISL,ioos:station:DISL:KATA:1,2017-11-03T00:30:00Z,30.2583,-88.2131,97.2,1111122 
DISL,ioos:station:DISL:KATA:1,2017-11-03T01:30:00Z,30.2583,-88.2131,96.6,1111122 
DISL,ioos:station:DISL:KATA:1,2017-11-03T02:30:00Z,30.2583,-88.2131,94.9,1111122 
DISL,ioos:station:DISL:KATA:1,2017-11-03T03:30:00Z,30.2583,-88.2131,92.8,1111122 
DISL,ioos:station:DISL:KATA:1,2017-11-03T04:30:00Z,30.2583,-88.2131,92.9,1111122 
DISL,ioos:station:DISL:KATA:1,2017-11-03T05:30:00Z,30.2583,-88.2131,92.5,1111122 
DISL,ioos:station:DISL:KATA:1,2017-11-03T06:30:00Z,30.2583,-88.2131,93.4,1111122 
DISL,ioos:station:DISL:KATA:1,2017-11-03T07:30:00Z,30.2583,-88.2131,94.4,1111122 
DISL,ioos:station:DISL:KATA:1,2017-11-03T08:30:00Z,30.2583,-88.2131,93.2,1111122 
DISL,ioos:station:DISL:KATA:1,2017-11-03T09:30:00Z,30.2583,-88.2131,95.0,1111122 
DISL,ioos:station:DISL:KATA:1,2017-11-03T10:30:00Z,30.2583,-88.2131,98.1,1111122 
DISL,ioos:station:DISL:KATA:1,2017-11-03T11:30:00Z,30.2583,-88.2131,100.0,1111122 
DISL,ioos:station:DISL:KATA:1,2017-11-03T12:30:00Z,30.2583,-88.2131,100.0,1111122 
DISL,ioos:station:DISL:KATA:1,2017-11-03T13:30:00Z,30.2583,-88.2131,100.0,1111122 
DISL,ioos:station:DISL:KATA:1,2017-11-03T14:30:00Z,30.2583,-88.2131,99.0,1111122 
DISL,ioos:station:DISL:KATA:1,2017-11-03T15:30:00Z,30.2583,-88.2131,99.2,1111122 
DISL,ioos:station:DISL:KATA:1,2017-11-03T16:30:00Z,30.2583,-88.2131,97.7,1111122 
DISL,ioos:station:DISL:KATA:1,2017-11-03T17:30:00Z,30.2583,-88.2131,98.1,1111122 
DISL,ioos:station:DISL:KATA:1,2017-11-03T18:30:00Z,30.2583,-88.2131,94.0,1111122 
DISL,ioos:station:DISL:KATA:1,2017-11-03T19:30:00Z,30.2583,-88.2131,92.6,1111122 
DISL,ioos:station:DISL:KATA:1,2017-11-03T20:30:00Z,30.2583,-88.2131,92.5,1111122 
DISL,ioos:station:DISL:KATA:1,2017-11-03T21:30:00Z,30.2583,-88.2131,92.0,1111122 
DISL,ioos:station:DISL:KATA:1,2017-11-03T22:30:00Z,30.2583,-88.2131,92.4,1111122 
DISL,ioos:station:DISL:KATA:1,2017-11-03T23:30:00Z,30.2583,-88.2131,95.6,1111122 
DISL,ioos:station:DISL:KATA:1,2017-11-04T00:30:00Z,30.2583,-88.2131,95.2,1111122 
DISL,ioos:station:DISL:KATA:1,2017-11-04T01:30:00Z,30.2583,-88.2131,94.6,1111122 
DISL,ioos:station:DISL:KATA:1,2017-11-04T02:30:00Z,30.2583,-88.2131,95.6,1111122 
DISL,ioos:station:DISL:KATA:1,2017-11-04T03:30:00Z,30.2583,-88.2131,95.7,1111122 
DISL,ioos:station:DISL:KATA:1,2017-11-04T04:30:00Z,30.2583,-88.2131,97.9,1111122 
DISL,ioos:station:DISL:KATA:1,2017-11-04T05:30:00Z,30.2583,-88.2131,99.6,1111122 
DISL,ioos:station:DISL:KATA:1,2017-11-04T06:30:00Z,30.2583,-88.2131,100.0,1111122 
DISL,ioos:station:DISL:KATA:1,2017-11-04T07:30:00Z,30.2583,-88.2131,100.0,1111122 
DISL,ioos:station:DISL:KATA:1,2017-11-04T08:30:00Z,30.2583,-88.2131,100.0,1111122 
DISL,ioos:station:DISL:KATA:1,2017-11-04T09:30:00Z,30.2583,-88.2131,100.0,1111122 
DISL,ioos:station:DISL:KATA:1,2017-11-04T10:30:00Z,30.2583,-88.2131,100.0,1111122 
DISL,ioos:station:DISL:KATA:1,2017-11-04T11:30:00Z,30.2583,-88.2131,100.0,1111122 
DISL,ioos:station:DISL:KATA:1,2017-11-04T12:30:00Z,30.2583,-88.2131,100.0,1111122 
DISL,ioos:station:DISL:KATA:1,2017-11-04T13:30:00Z,30.2583,-88.2131,100.0,1111122 
DISL,ioos:station:DISL:KATA:1,2017-11-04T14:30:00Z,30.2583,-88.2131,100.0,1111122 
DISL,ioos:station:DISL:KATA:1,2017-11-04T15:30:00Z,30.2583,-88.2131,100.0,1111122 
DISL,ioos:station:DISL:KATA:1,2017-11-04T16:30:00Z,30.2583,-88.2131,97.1,1111122 
DISL,ioos:station:DISL:KATA:1,2017-11-04T17:30:00Z,30.2583,-88.2131,99.0,1111122 
DISL,ioos:station:DISL:KATA:1,2017-11-04T18:30:00Z,30.2583,-88.2131,94.2,1111122 
DISL,ioos:station:DISL:KATA:1,2017-11-04T19:30:00Z,30.2583,-88.2131,94.4,1111122 
DISL,ioos:station:DISL:KATA:1,2017-11-04T20:30:00Z,30.2583,-88.2131,93.8,1111122 
DISL,ioos:station:DISL:KATA:1,2017-11-04T21:30:00Z,30.2583,-88.2131,91.7,1111122 
DISL,ioos:station:DISL:KATA:1,2017-11-04T22:30:00Z,30.2583,-88.2131,90.0,1111122 
DISL,ioos:station:DISL:KATA:1,2017-11-04T23:30:00Z,30.2583,-88.2131,90.1,1111122 
DISL,ioos:station:DISL:KATA:1,2017-11-05T00:30:00Z,30.2583,-88.2131,91.2,1111122 
DISL,ioos:station:DISL:KATA:1,2017-11-05T01:30:00Z,30.2583,-88.2131,92.6,1111122 
DISL,ioos:station:DISL:KATA:1,2017-11-05T02:30:00Z,30.2583,-88.2131,94.6,1111122 
DISL,ioos:station:DISL:KATA:1,2017-11-05T03:30:00Z,30.2583,-88.2131,94.5,1111122 
DISL,ioos:station:DISL:KATA:1,2017-11-05T04:30:00Z,30.2583,-88.2131,96.7,1111122 
DISL,ioos:station:DISL:KATA:1,2017-11-05T05:30:00Z,30.2583,-88.2131,94.3,1111122 
DISL,ioos:station:DISL:KATA:1,2017-11-05T06:30:00Z,30.2583,-88.2131,94.8,1111122 
DISL,ioos:station:DISL:KATA:1,2017-11-05T08:30:00Z,30.2583,-88.2131,97.2,1111122 
DISL,ioos:station:DISL:KATA:1,2017-11-05T09:30:00Z,30.2583,-88.2131,98.8,1111122 
DISL,ioos:station:DISL:KATA:1,2017-11-05T10:30:00Z,30.2583,-88.2131,99.5,1111122 
DISL,ioos:station:DISL:KATA:1,2017-11-05T11:30:00Z,30.2583,-88.2131,100.0,1111122 
DISL,ioos:station:DISL:KATA:1,2017-11-05T12:30:00Z,30.2583,-88.2131,100.0,1111122 
DISL,ioos:station:DISL:KATA:1,2017-11-05T13:30:00Z,30.2583,-88.2131,100.0,1111122 
DISL,ioos:station:DISL:KATA:1,2017-11-05T14:30:00Z,30.2583,-88.2131,100.0,1111122 
DISL,ioos:station:DISL:KATA:1,2017-11-05T15:30:00Z,30.2583,-88.2131,100.0,1111122 
DISL,ioos:station:DISL:KATA:1,2017-11-05T16:30:00Z,30.2583,-88.2131,99.8,1111122 
DISL,ioos:station:DISL:KATA:1,2017-11-05T17:30:00Z,30.2583,-88.2131,96.0,1111122 
DISL,ioos:station:DISL:KATA:1,2017-11-05T18:30:00Z,30.2583,-88.2131,98.4,1111122 
DISL,ioos:station:DISL:KATA:1,2017-11-05T19:30:00Z,30.2583,-88.2131,98.5,1111122 
DISL,ioos:station:DISL:KATA:1,2017-11-05T20:30:00Z,30.2583,-88.2131,95.8,1111122 
DISL,ioos:station:DISL:KATA:1,2017-11-05T21:30:00Z,30.2583,-88.2131,95.8,1111122 
DISL,ioos:station:DISL:KATA:1,2017-11-05T22:30:00Z,30.2583,-88.2131,96.3,1111122 
DISL,ioos:station:DISL:KATA:1,2017-11-05T23:30:00Z,30.2583,-88.2131,97.3,1111122 
DISL,ioos:station:DISL:KATA:1,2017-11-06T00:30:00Z,30.2583,-88.2131,97.6,1111122 
DISL,ioos:station:DISL:KATA:1,2017-11-06T01:30:00Z,30.2583,-88.2131,96.0,1111122 
DISL,ioos:station:DISL:KATA:1,2017-11-06T02:30:00Z,30.2583,-88.2131,96.3,1111122 
DISL,ioos:station:DISL:KATA:1,2017-11-06T03:30:00Z,30.2583,-88.2131,95.7,1111122 
DISL,ioos:station:DISL:KATA:1,2017-11-06T04:30:00Z,30.2583,-88.2131,98.2,1111122 
DISL,ioos:station:DISL:KATA:1,2017-11-06T05:30:00Z,30.2583,-88.2131,94.4,1111122 
DISL,ioos:station:DISL:KATA:1,2017-11-06T06:30:00Z,30.2583,-88.2131,92.1,1111122 
DISL,ioos:station:DISL:KATA:1,2017-11-06T07:30:00Z,30.2583,-88.2131,93.0,1111122 
DISL,ioos:station:DISL:KATA:1,2017-11-06T08:30:00Z,30.2583,-88.2131,95.0,1111122 
DISL,ioos:station:DISL:KATA:1,2017-11-06T09:30:00Z,30.2583,-88.2131,97.2,1111122 
DISL,ioos:station:DISL:KATA:1,2017-11-06T10:30:00Z,30.2583,-88.2131,99.4,1111122 
DISL,ioos:station:DISL:KATA:1,2017-11-06T11:30:00Z,30.2583,-88.2131,99.8,1111122 
DISL,ioos:station:DISL:KATA:1,2017-11-06T12:30:00Z,30.2583,-88.2131,100.0,1111122 
DISL,ioos:station:DISL:KATA:1,2017-11-06T13:30:00Z,30.2583,-88.2131,95.5,1111122 
DISL,ioos:station:DISL:KATA:1,2017-11-06T14:30:00Z,30.2583,-88.2131,95.8,1111122 
DISL,ioos:station:DISL:KATA:1,2017-11-06T15:30:00Z,30.2583,-88.2131,98.8,1111122 
DISL,ioos:station:DISL:KATA:1,2017-11-06T16:30:00Z,30.2583,-88.2131,94.8,1111122 
DISL,ioos:station:DISL:KATA:1,2017-11-06T17:30:00Z,30.2583,-88.2131,95.6,1111122 
DISL,ioos:station:DISL:KATA:1,2017-11-06T18:30:00Z,30.2583,-88.2131,92.7,1111122 
DISL,ioos:station:DISL:KATA:1,2017-11-06T19:30:00Z,30.2583,-88.2131,91.0,1111122 
DISL,ioos:station:DISL:KATA:1,2017-11-06T20:30:00Z,30.2583,-88.2131,93.5,1111122 
DISL,ioos:station:DISL:KATA:1,2017-11-06T21:30:00Z,30.2583,-88.2131,93.4,1111122 
DISL,ioos:station:DISL:KATA:1,2017-11-06T22:30:00Z,30.2583,-88.2131,93.1,1111122 
DISL,ioos:station:DISL:KATA:1,2017-11-06T23:30:00Z,30.2583,-88.2131,94.2,1111122 
DISL,ioos:station:DISL:KATA:1,2017-11-07T00:30:00Z,30.2583,-88.2131,94.6,1111122 
DISL,ioos:station:DISL:KATA:1,2017-11-07T01:30:00Z,30.2583,-88.2131,95.4,1111122 
DISL,ioos:station:DISL:KATA:1,2017-11-07T02:30:00Z,30.2583,-88.2131,96.3,1111122 
DISL,ioos:station:DISL:KATA:1,2017-11-07T03:30:00Z,30.2583,-88.2131,95.9,1111122 
DISL,ioos:station:DISL:KATA:1,2017-11-07T04:30:00Z,30.2583,-88.2131,93.6,1111122 
DISL,ioos:station:DISL:KATA:1,2017-11-07T05:30:00Z,30.2583,-88.2131,93.5,1111122 
DISL,ioos:station:DISL:KATA:1,2017-11-07T06:00:00Z,30.2583,-88.2131,95.3,1111122 
DISL,ioos:station:DISL:KATA:1,2017-11-07T07:30:00Z,30.2583,-88.2131,97.8,1111122 
DISL,ioos:station:DISL:KATA:1,2017-11-07T08:00:00Z,30.2583,-88.2131,97.3,1111122 
DISL,ioos:station:DISL:KATA:1,2017-11-07T09:30:00Z,30.2583,-88.2131,98.2,1111122 
DISL,ioos:station:DISL:KATA:1,2017-11-07T10:30:00Z,30.2583,-88.2131,99.1,1111122 
DISL,ioos:station:DISL:KATA:1,2017-11-07T11:30:00Z,30.2583,-88.2131,98.5,1111122 
DISL,ioos:station:DISL:KATA:1,2017-11-07T12:30:00Z,30.2583,-88.2131,98.7,1111122 
DISL,ioos:station:DISL:KATA:1,2017-11-07T13:00:00Z,30.2583,-88.2131,98.4,1111122 
DISL,ioos:station:DISL:KATA:1,2017-11-07T14:30:00Z,30.2583,-88.2131,98.4,1111122 
DISL,ioos:station:DISL:KATA:1,2017-11-07T15:30:00Z,30.2583,-88.2131,98.6,1111122 
DISL,ioos:station:DISL:KATA:1,2017-11-07T16:30:00Z,30.2583,-88.2131,98.7,1111122 
DISL,ioos:station:DISL:KATA:1,2017-11-07T17:30:00Z,30.2583,-88.2131,96.3,1111122 
DISL,ioos:station:DISL:KATA:1,2017-11-07T18:30:00Z,30.2583,-88.2131,96.3,1111122 
DISL,ioos:station:DISL:KATA:1,2017-11-07T19:30:00Z,30.2583,-88.2131,94.8,1111122 
DISL,ioos:station:DISL:KATA:1,2017-11-07T20:30:00Z,30.2583,-88.2131,93.9,1111122 
DISL,ioos:station:DISL:KATA:1,2017-11-07T21:30:00Z,30.2583,-88.2131,91.5,1111122 
DISL,ioos:station:DISL:KATA:1,2017-11-07T22:30:00Z,30.2583,-88.2131,92.3,1111122 
DISL,ioos:station:DISL:KATA:1,2017-11-07T23:30:00Z,30.2583,-88.2131,93.7,1111122 
DISL,ioos:station:DISL:KATA:1,2017-11-08T00:30:00Z,30.2583,-88.2131,96.2,1111122 
DISL,ioos:station:DISL:KATA:1,2017-11-08T01:30:00Z,30.2583,-88.2131,96.4,1111122 
DISL,ioos:station:DISL:KATA:1,2017-11-08T02:30:00Z,30.2583,-88.2131,97.4,1111122 
DISL,ioos:station:DISL:KATA:1,2017-11-08T03:30:00Z,30.2583,-88.2131,98.3,1111122 
DISL,ioos:station:DISL:KATA:1,2017-11-08T05:30:00Z,30.2583,-88.2131,98.8,1111122 
DISL,ioos:station:DISL:KATA:1,2017-11-08T06:30:00Z,30.2583,-88.2131,99.1,1111122 
DISL,ioos:station:DISL:KATA:1,2017-11-08T07:30:00Z,30.2583,-88.2131,99.7,1111122 
DISL,ioos:station:DISL:KATA:1,2017-11-08T08:30:00Z,30.2583,-88.2131,100.0,1111122 
DISL,ioos:station:DISL:KATA:1,2017-11-08T09:30:00Z,30.2583,-88.2131,99.8,1111122 
DISL,ioos:station:DISL:KATA:1,2017-11-08T10:30:00Z,30.2583,-88.2131,100.0,1111122 
DISL,ioos:station:DISL:KATA:1,2017-11-08T11:30:00Z,30.2583,-88.2131,100.0,1111122 
DISL,ioos:station:DISL:KATA:1,2017-11-08T12:30:00Z,30.2583,-88.2131,100.0,1111122 
DISL,ioos:station:DISL:KATA:1,2017-11-08T13:30:00Z,30.2583,-88.2131,100.0,1111122 
DISL,ioos:station:DISL:KATA:1,2017-11-08T14:30:00Z,30.2583,-88.2131,100.0,1111122 
DISL,ioos:station:DISL:KATA:1,2017-11-08T15:30:00Z,30.2583,-88.2131,100.0,1111122 
DISL,ioos:station:DISL:KATA:1,2017-11-08T16:30:00Z,30.2583,-88.2131,100.0,1111122 
DISL,ioos:station:DISL:KATA:1,2017-11-08T17:30:00Z,30.2583,-88.2131,98.0,1111122 
DISL,ioos:station:DISL:KATA:1,2017-11-08T18:30:00Z,30.2583,-88.2131,97.0,1111122 
DISL,ioos:station:DISL:KATA:1,2017-11-08T19:30:00Z,30.2583,-88.2131,98.2,1111122 
DISL,ioos:station:DISL:KATA:1,2017-11-08T20:30:00Z,30.2583,-88.2131,99.4,1111122 
DISL,ioos:station:DISL:KATA:1,2017-11-08T21:30:00Z,30.2583,-88.2131,98.6,1111122 
DISL,ioos:station:DISL:KATA:1,2017-11-08T22:30:00Z,30.2583,-88.2131,95.3,1111122 
DISL,ioos:station:DISL:KATA:1,2017-11-08T23:30:00Z,30.2583,-88.2131,95.9,1111122 
DISL,ioos:station:DISL:KATA:1,2017-11-09T00:30:00Z,30.2583,-88.2131,97.4,1111122 
DISL,ioos:station:DISL:KATA:1,2017-11-09T01:30:00Z,30.2583,-88.2131,95.5,1111122 
DISL,ioos:station:DISL:KATA:1,2017-11-09T02:30:00Z,30.2583,-88.2131,96.2,1111122 
DISL,ioos:station:DISL:KATA:1,2017-11-09T03:30:00Z,30.2583,-88.2131,95.5,1111122 
DISL,ioos:station:DISL:KATA:1,2017-11-09T04:00:00Z,30.2583,-88.2131,94.7,1111122 
DISL,ioos:station:DISL:KATA:1,2017-11-09T05:30:00Z,30.2583,-88.2131,94.4,1111122 
DISL,ioos:station:DISL:KATA:1,2017-11-09T06:00:00Z,30.2583,-88.2131,94.4,1111122 
DISL,ioos:station:DISL:KATA:1,2017-11-09T07:30:00Z,30.2583,-88.2131,95.8,1111122 
DISL,ioos:station:DISL:KATA:1,2017-11-09T08:30:00Z,30.2583,-88.2131,94.3,1111122 
DISL,ioos:station:DISL:KATA:1,2017-11-09T09:30:00Z,30.2583,-88.2131,98.8,1111122 
DISL,ioos:station:DISL:KATA:1,2017-11-09T10:30:00Z,30.2583,-88.2131,99.8,1111122 
DISL,ioos:station:DISL:KATA:1,2017-11-09T11:30:00Z,30.2583,-88.2131,99.3,1111122 
DISL,ioos:station:DISL:KATA:1,2017-11-09T12:30:00Z,30.2583,-88.2131,92.3,1111122 
DISL,ioos:station:DISL:KATA:1,2017-11-09T13:30:00Z,30.2583,-88.2131,94.9,1111122 
DISL,ioos:station:DISL:KATA:1,2017-11-09T14:30:00Z,30.2583,-88.2131,96.9,1111122 
DISL,ioos:station:DISL:KATA:1,2017-11-09T15:30:00Z,30.2583,-88.2131,96.3,1111122 
DISL,ioos:station:DISL:KATA:1,2017-11-09T16:30:00Z,30.2583,-88.2131,91.8,1111122 
DISL,ioos:station:DISL:KATA:1,2017-11-09T17:30:00Z,30.2583,-88.2131,88.7,1111122 
DISL,ioos:station:DISL:KATA:1,2017-11-09T18:30:00Z,30.2583,-88.2131,92.0,1111122 
DISL,ioos:station:DISL:KATA:1,2017-11-09T19:30:00Z,30.2583,-88.2131,86.3,1111122 
DISL,ioos:station:DISL:KATA:1,2017-11-09T20:30:00Z,30.2583,-88.2131,87.2,1111122 
DISL,ioos:station:DISL:KATA:1,2017-11-09T21:30:00Z,30.2583,-88.2131,88.2,1111122 
DISL,ioos:station:DISL:KATA:1,2017-11-09T22:30:00Z,30.2583,-88.2131,87.3,1111122 
DISL,ioos:station:DISL:KATA:1,2017-11-09T23:30:00Z,30.2583,-88.2131,88.4,1111122 
DISL,ioos:station:DISL:KATA:1,2017-11-10T00:30:00Z,30.2583,-88.2131,90.5,1111122 
DISL,ioos:station:DISL:KATA:1,2017-11-10T01:30:00Z,30.2583,-88.2131,89.1,1111122 
DISL,ioos:station:DISL:KATA:1,2017-11-10T02:30:00Z,30.2583,-88.2131,86.5,1111122 
DISL,ioos:station:DISL:KATA:1,2017-11-10T03:30:00Z,30.2583,-88.2131,89.7,1111122 
DISL,ioos:station:DISL:KATA:1,2017-11-10T04:30:00Z,30.2583,-88.2131,89.1,1111122 
DISL,ioos:station:DISL:KATA:1,2017-11-10T05:30:00Z,30.2583,-88.2131,88.0,1111122 
DISL,ioos:station:DISL:KATA:1,2017-11-10T06:30:00Z,30.2583,-88.2131,90.1,1111122 
DISL,ioos:station:DISL:KATA:1,2017-11-10T07:30:00Z,30.2583,-88.2131,93.7,1111122 
DISL,ioos:station:DISL:KATA:1,2017-11-10T08:30:00Z,30.2583,-88.2131,93.6,1111122 
DISL,ioos:station:DISL:KATA:1,2017-11-10T09:30:00Z,30.2583,-88.2131,94.4,1111122 
DISL,ioos:station:DISL:KATA:1,2017-11-10T10:30:00Z,30.2583,-88.2131,96.0,1111122 
DISL,ioos:station:DISL:KATA:1,2017-11-10T11:30:00Z,30.2583,-88.2131,97.7,1111122 
DISL,ioos:station:DISL:KATA:1,2017-11-10T12:30:00Z,30.2583,-88.2131,100.0,1111122 
DISL,ioos:station:DISL:KATA:1,2017-11-10T13:30:00Z,30.2583,-88.2131,98.5,1111122 
DISL,ioos:station:DISL:KATA:1,2017-11-10T14:30:00Z,30.2583,-88.2131,88.8,1111122 
DISL,ioos:station:DISL:KATA:1,2017-11-10T15:30:00Z,30.2583,-88.2131,72.0,1111122 
DISL,ioos:station:DISL:KATA:1,2017-11-10T16:30:00Z,30.2583,-88.2131,68.06,1111122 
DISL,ioos:station:DISL:KATA:1,2017-11-10T17:30:00Z,30.2583,-88.2131,69.67,1111122 
DISL,ioos:station:DISL:KATA:1,2017-11-10T18:30:00Z,30.2583,-88.2131,61.21,1111122 
DISL,ioos:station:DISL:KATA:1,2017-11-10T19:30:00Z,30.2583,-88.2131,50.93,1111122 
DISL,ioos:station:DISL:KATA:1,2017-11-10T20:30:00Z,30.2583,-88.2131,50.22,1111122 
DISL,ioos:station:DISL:KATA:1,2017-11-10T21:30:00Z,30.2583,-88.2131,43.6,1111122 
DISL,ioos:station:DISL:KATA:1,2017-11-10T22:30:00Z,30.2583,-88.2131,57.65,1111122 
DISL,ioos:station:DISL:KATA:1,2017-11-10T23:30:00Z,30.2583,-88.2131,57.45,1111122 
DISL,ioos:station:DISL:KATA:1,2017-11-11T00:30:00Z,30.2583,-88.2131,64.69,1111122 
DISL,ioos:station:DISL:KATA:1,2017-11-11T01:30:00Z,30.2583,-88.2131,67.58,1111122 
DISL,ioos:station:DISL:KATA:1,2017-11-11T02:30:00Z,30.2583,-88.2131,70.2,1111122 
DISL,ioos:station:DISL:KATA:1,2017-11-11T03:30:00Z,30.2583,-88.2131,72.91,1111122 
DISL,ioos:station:DISL:KATA:1,2017-11-11T04:30:00Z,30.2583,-88.2131,69.21,1111122 
DISL,ioos:station:DISL:KATA:1,2017-11-11T05:30:00Z,30.2583,-88.2131,73.56,1111122 
DISL,ioos:station:DISL:KATA:1,2017-11-11T06:30:00Z,30.2583,-88.2131,68.6,1111122 
DISL,ioos:station:DISL:KATA:1,2017-11-11T07:30:00Z,30.2583,-88.2131,74.58,1111122 
DISL,ioos:station:DISL:KATA:1,2017-11-11T08:30:00Z,30.2583,-88.2131,77.09,1111122 
DISL,ioos:station:DISL:KATA:1,2017-11-11T09:30:00Z,30.2583,-88.2131,80.4,1111122 
DISL,ioos:station:DISL:KATA:1,2017-11-11T10:30:00Z,30.2583,-88.2131,82.7,1111122 
DISL,ioos:station:DISL:KATA:1,2017-11-11T11:30:00Z,30.2583,-88.2131,79.87,1111122 
DISL,ioos:station:DISL:KATA:1,2017-11-11T12:30:00Z,30.2583,-88.2131,81.3,1111122 
DISL,ioos:station:DISL:KATA:1,2017-11-11T13:30:00Z,30.2583,-88.2131,80.9,1111122 
DISL,ioos:station:DISL:KATA:1,2017-11-11T14:30:00Z,30.2583,-88.2131,81.3,1111122 
DISL,ioos:station:DISL:KATA:1,2017-11-11T15:30:00Z,30.2583,-88.2131,81.4,1111122 
DISL,ioos:station:DISL:KATA:1,2017-11-11T16:30:00Z,30.2583,-88.2131,81.6,1111122 
DISL,ioos:station:DISL:KATA:1,2017-11-11T17:30:00Z,30.2583,-88.2131,78.79,1111122 
DISL,ioos:station:DISL:KATA:1,2017-11-11T18:30:00Z,30.2583,-88.2131,73.59,1111122 
DISL,ioos:station:DISL:KATA:1,2017-11-11T19:30:00Z,30.2583,-88.2131,78.24,1111122 
DISL,ioos:station:DISL:KATA:1,2017-11-11T20:30:00Z,30.2583,-88.2131,78.14,1111122 
DISL,ioos:station:DISL:KATA:1,2017-11-11T21:30:00Z,30.2583,-88.2131,79.36,1111122 
DISL,ioos:station:DISL:KATA:1,2017-11-11T22:00:00Z,30.2583,-88.2131,82.2,1111122 
DISL,ioos:station:DISL:KATA:1,2017-11-11T23:30:00Z,30.2583,-88.2131,82.8,1111122 
DISL,ioos:station:DISL:KATA:1,2017-11-12T00:30:00Z,30.2583,-88.2131,82.7,1111122 
DISL,ioos:station:DISL:KATA:1,2017-11-12T01:30:00Z,30.2583,-88.2131,83.0,1111122 
DISL,ioos:station:DISL:KATA:1,2017-11-12T02:30:00Z,30.2583,-88.2131,85.1,1111122 
DISL,ioos:station:DISL:KATA:1,2017-11-12T04:30:00Z,30.2583,-88.2131,83.6,1111122 
DISL,ioos:station:DISL:KATA:1,2017-11-12T05:30:00Z,30.2583,-88.2131,85.7,1111122 
DISL,ioos:station:DISL:KATA:1,2017-11-12T06:30:00Z,30.2583,-88.2131,90.3,1111122 
DISL,ioos:station:DISL:KATA:1,2017-11-12T07:30:00Z,30.2583,-88.2131,92.3,1111122 
DISL,ioos:station:DISL:KATA:1,2017-11-12T09:00:00Z,30.2583,-88.2131,95.2,1111122 
DISL,ioos:station:DISL:KATA:1,2017-11-12T10:30:00Z,30.2583,-88.2131,96.9,1111122 
DISL,ioos:station:DISL:KATA:1,2017-11-12T11:30:00Z,30.2583,-88.2131,97.5,1111122 
DISL,ioos:station:DISL:KATA:1,2017-11-12T13:00:00Z,30.2583,-88.2131,98.6,1111122 
DISL,ioos:station:DISL:KATA:1,2017-11-12T15:30:00Z,30.2583,-88.2131,99.3,1111122 
DISL,ioos:station:DISL:KATA:1,2017-11-12T16:30:00Z,30.2583,-88.2131,99.4,1111122 
DISL,ioos:station:DISL:KATA:1,2017-11-12T17:30:00Z,30.2583,-88.2131,97.7,1111122 
DISL,ioos:station:DISL:KATA:1,2017-11-12T18:30:00Z,30.2583,-88.2131,97.8,1111122 
DISL,ioos:station:DISL:KATA:1,2017-11-12T19:30:00Z,30.2583,-88.2131,98.1,1111122 
DISL,ioos:station:DISL:KATA:1,2017-11-12T20:30:00Z,30.2583,-88.2131,98.0,1111122 
DISL,ioos:station:DISL:KATA:1,2017-11-12T21:30:00Z,30.2583,-88.2131,94.8,1111122 
DISL,ioos:station:DISL:KATA:1,2017-11-12T22:30:00Z,30.2583,-88.2131,95.0,1111122 
DISL,ioos:station:DISL:KATA:1,2017-11-12T23:00:00Z,30.2583,-88.2131,94.5,1111122 
DISL,ioos:station:DISL:KATA:1,2017-11-13T00:30:00Z,30.2583,-88.2131,93.4,1111122 
DISL,ioos:station:DISL:KATA:1,2017-11-13T01:30:00Z,30.2583,-88.2131,92.9,1111122 
DISL,ioos:station:DISL:KATA:1,2017-11-13T02:30:00Z,30.2583,-88.2131,91.5,1111122 
DISL,ioos:station:DISL:KATA:1,2017-11-13T06:30:00Z,30.2583,-88.2131,93.5,1111122 
DISL,ioos:station:DISL:KATA:1,2017-11-13T07:30:00Z,30.2583,-88.2131,93.8,1111122 
DISL,ioos:station:DISL:KATA:1,2017-11-13T08:30:00Z,30.2583,-88.2131,94.5,1111122 
DISL,ioos:station:DISL:KATA:1,2017-11-13T09:30:00Z,30.2583,-88.2131,95.0,1111122 
DISL,ioos:station:DISL:KATA:1,2017-11-13T10:30:00Z,30.2583,-88.2131,95.5,1111122 
DISL,ioos:station:DISL:KATA:1,2017-11-13T11:30:00Z,30.2583,-88.2131,98.4,1111122 